Precipitable_Water
0.15 0.17 0.20 0.22 0.21 0.22 0.23 0.23 0.25 0.24 0.24 0.23 0.22 0.22 0.23 0.24 0.26 0.28 0.32 0.47 0.57 0.64 0.66 0.67 0.75 0.80 0.84 0.87 0.91 0.94 0.96 0.99 1.02 1.05 1.07 1.08 1.11 1.12 1.15 1.18 1.22 1.22 1.22 1.27 1.32 1.36 1.42 1.43 1.43 1.36 1.35 1.28
0.14 0.15 0.17 0.19 0.19 0.20 0.20 0.21 0.22 0.22 0.21 0.21 0.20 0.21 0.20 0.21 0.21 0.23 0.25 0.32 0.45 0.54 0.59 0.62 0.66 0.72 0.78 0.82 0.84 0.88 0.91 0.94 0.98 1.00 1.03 1.04 1.06 1.07 1.09 1.12 1.15 1.18 1.20 1.19 1.25 1.31 1.35 1.36 1.37 1.39 1.35 1.31
0.12 0.14 0.16 0.16 0.16 0.16 0.17 0.19 0.19 0.19 0.18 0.18 0.17 0.19 0.18 0.18 0.18 0.19 0.20 0.24 0.29 0.44 0.50 0.53 0.60 0.64 0.72 0.77 0.80 0.82 0.85 0.88 0.91 0.96 0.98 1.00 1.03 1.04 1.04 1.06 1.07 1.10 1.15 1.17 1.19 1.23 1.28 1.31 1.32 1.34 1.35 1.32
0.12 0.12 0.14 0.14 0.14 0.14 0.14 0.15 0.16 0.16 0.15 0.15 0.15 0.16 0.16 0.16 0.15 0.17 0.17 0.20 0.21 0.31 0.40 0.44 0.50 0.58 0.64 0.70 0.74 0.77 0.79 0.81 0.84 0.89 0.93 0.95 0.97 1.00 1.00 1.00 1.00 1.03 1.07 1.11 1.14 1.17 1.22 1.24 1.25 1.28 1.32 1.32
0.13 0.13 0.14 0.13 0.13 0.13 0.13 0.13 0.14 0.13 0.13 0.13 0.13 0.14 0.14 0.14 0.14 0.14 0.15 0.16 0.19 0.22 0.30 0.38 0.44 0.48 0.56 0.62 0.67 0.71 0.72 0.75 0.77 0.83 0.86 0.89 0.91 0.94 0.96 0.97 0.95 0.97 1.00 1.04 1.09 1.11 1.16 1.19 1.21 1.22 1.26 1.28
0.15 0.15 0.14 0.14 0.14 0.13 0.13 0.13 0.13 0.12 0.12 0.12 0.12 0.12 0.13 0.13 0.13 0.14 0.13 0.14 0.17 0.19 0.22 0.30 0.38 0.42 0.48 0.53 0.59 0.65 0.66 0.69 0.72 0.76 0.79 0.82 0.85 0.87 0.91 0.93 0.94 0.94 0.96 0.98 1.03 1.05 1.08 1.12 1.15 1.17 1.20 1.22
0.15 0.15 0.15 0.15 0.14 0.14 0.14 0.13 0.13 0.12 0.12 0.12 0.11 0.11 0.12 0.13 0.13 0.13 0.13 0.13 0.15 0.16 0.18 0.24 0.31 0.36 0.41 0.46 0.50 0.57 0.59 0.63 0.66 0.69 0.72 0.75 0.78 0.80 0.84 0.88 0.91 0.93 0.93 0.94 0.96 1.00 1.02 1.05 1.10 1.13 1.15 1.17
0.15 0.15 0.15 0.15 0.14 0.14 0.14 0.14 0.13 0.13 0.13 0.12 0.12 0.11 0.11 0.12 0.13 0.13 0.13 0.13 0.13 0.14 0.15 0.18 0.26 0.30 0.34 0.38 0.44 0.50 0.52 0.57 0.61 0.63 0.65 0.68 0.71 0.73 0.77 0.81 0.84 0.87 0.90 0.92 0.94 0.96 0.98 1.00 1.04 1.08 1.11 1.13
0.14 0.15 0.14 0.14 0.14 0.14 0.14 0.14 0.14 0.14 0.13 0.13 0.12 0.12 0.12 0.12 0.12 0.12 0.13 0.13 0.12 0.12 0.13 0.14 0.19 0.25 0.29 0.33 0.37 0.44 0.46 0.50 0.54 0.58 0.60 0.62 0.65 0.68 0.70 0.73 0.76 0.80 0.82 0.87 0.90 0.93 0.95 0.96 0.99 1.03 1.06 1.08
0.14 0.14 0.13 0.13 0.14 0.14 0.14 0.14 0.13 0.13 0.13 0.13 0.13 0.13 0.12 0.13 0.12 0.12 0.12 0.12 0.12 0.12 0.12 0.12 0.14 0.20 0.25 0.28 0.32 0.37 0.40 0.44 0.48 0.52 0.55 0.57 0.59 0.62 0.65 0.67 0.69 0.73 0.75 0.79 0.85 0.89 0.92 0.94 0.95 0.97 1.00 1.03
0.13 0.13 0.13 0.14 0.14 0.13 0.14 0.13 0.13 0.13 0.13 0.13 0.13 0.13 0.13 0.12 0.12 0.12 0.12 0.11 0.12 0.12 0.12 0.11 0.13 0.15 0.20 0.25 0.28 0.32 0.35 0.39 0.42 0.46 0.50 0.52 0.54 0.56 0.60 0.62 0.64 0.66 0.69 0.72 0.77 0.83 0.88 0.91 0.94 0.95 0.95 0.98
0.13 0.13 0.13 0.14 0.13 0.13 0.15 0.13 0.12 0.12 0.12 0.12 0.12 0.13 0.13 0.13 0.13 0.12 0.12 0.12 0.11 0.12 0.12 0.11 0.12 0.13 0.15 0.21 0.25 0.28 0.31 0.34 0.37 0.41 0.44 0.47 0.50 0.52 0.54 0.57 0.60 0.62 0.62 0.65 0.69 0.74 0.80 0.86 0.90 0.93 0.94 0.95
0.13 0.14 0.13 0.13 0.13 0.13 0.14 0.12 0.12 0.12 0.12 0.12 0.12 0.13 0.13 0.13 0.13 0.13 0.13 0.13 0.12 0.12 0.11 0.11 0.12 0.12 0.13 0.15 0.20 0.25 0.27 0.30 0.33 0.35 0.39 0.42 0.45 0.47 0.50 0.52 0.55 0.58 0.59 0.60 0.63 0.67 0.71 0.77 0.84 0.89 0.92 0.93
0.14 0.14 0.13 0.13 0.13 0.13 0.14 0.13 0.13 0.13 0.12 0.13 0.13 0.13 0.13 0.13 0.13 0.13 0.13 0.14 0.14 0.13 0.12 0.12 0.12 0.11 0.12 0.13 0.15 0.20 0.24 0.27 0.29 0.32 0.34 0.38 0.41 0.42 0.45 0.48 0.51 0.54 0.55 0.56 0.57 0.61 0.64 0.69 0.76 0.83 0.88 0.90
0.14 0.14 0.14 0.14 0.13 0.13 0.13 0.13 0.13 0.13 0.13 0.13 0.13 0.13 0.13 0.13 0.14 0.15 0.15 0.15 0.14 0.14 0.14 0.13 0.12 0.12 0.11 0.11 0.13 0.15 0.20 0.24 0.26 0.29 0.31 0.33 0.36 0.39 0.41 0.44 0.47 0.49 0.51 0.53 0.54 0.56 0.58 0.61 0.68 0.74 0.81 0.86
0.14 0.14 0.14 0.14 0.13 0.13 0.14 0.14 0.13 0.13 0.13 0.13 0.13 0.13 0.13 0.13 0.14 0.14 0.14 0.14 0.14 0.15 0.14 0.14 0.13 0.12 0.11 0.10 0.11 0.13 0.16 0.20 0.24 0.26 0.29 0.30 0.33 0.35 0.37 0.39 0.42 0.45 0.47 0.50 0.52 0.53 0.54 0.57 0.60 0.66 0.72 0.78
0.15 0.14 0.14 0.14 0.14 0.14 0.14 0.13 0.13 0.12 0.12 0.12 0.13 0.13 0.13 0.13 0.14 0.14 0.14 0.14 0.14 0.14 0.14 0.14 0.14 0.13 0.12 0.11 0.10 0.11 0.13 0.17 0.20 0.23 0.26 0.28 0.30 0.32 0.34 0.36 0.38 0.41 0.43 0.46 0.49 0.51 0.52 0.54 0.55 0.58 0.63 0.69
0.15 0.15 0.14 0.15 0.14 0.14 0.14 0.13 0.13 0.12 0.12 0.12 0.12 0.13 0.13 0.13 0.14 0.14 0.14 0.14 0.14 0.14 0.14 0.13 0.13 0.13 0.13 0.12 0.11 0.11 0.12 0.13 0.17 0.20 0.23 0.25 0.27 0.29 0.30 0.32 0.34 0.36 0.38 0.41 0.45 0.48 0.50 0.51 0.52 0.54 0.56 0.61
0.15 0.15 0.14 0.14 0.14 0.14 0.14 0.14 0.13 0.12 0.12 0.12 0.12 0.13 0.13 0.13 0.14 0.14 0.14 0.14 0.14 0.14 0.14 0.13 0.13 0.13 0.13 0.13 0.12 0.11 0.11 0.12 0.14 0.17 0.20 0.23 0.25 0.26 0.28 0.30 0.32 0.34 0.35 0.37 0.39 0.44 0.48 0.49 0.50 0.51 0.53 0.54
0.16 0.15 0.14 0.14 0.14 0.14 0.14 0.13 0.13 0.12 0.12 0.12 0.12 0.12 0.12 0.13 0.14 0.14 0.14 0.14 0.14 0.13 0.14 0.13 0.13 0.13 0.13 0.14 0.13 0.12 0.11 0.11 0.12 0.14 0.18 0.20 0.22 0.24 0.25 0.27 0.28 0.31 0.33 0.34 0.36 0.39 0.43 0.47 0.48 0.49 0.50 0.51
0.16 0.16 0.15 0.14 0.14 0.13 0.13 0.13 0.12 0.12 0.12 0.12 0.12 0.12 0.11 0.13 0.14 0.14 0.13 0.14 0.14 0.14 0.14 0.14 0.13 0.13 0.13 0.14 0.13 0.13 0.12 0.11 0.12 0.12 0.15 0.17 0.20 0.22 0.24 0.25 0.26 0.28 0.30 0.32 0.33 0.35 0.37 0.41 0.45 0.47 0.49 0.49
0.17 0.16 0.15 0.14 0.14 0.14 0.13 0.13 0.13 0.12 0.12 0.12 0.12 0.11 0.12 0.13 0.12 0.13 0.13 0.13 0.13 0.13 0.14 0.14 0.13 0.13 0.14 0.14 0.13 0.13 0.13 0.12 0.12 0.12 0.12 0.14 0.17 0.20 0.21 0.23 0.24 0.25 0.26 0.29 0.31 0.32 0.33 0.35 0.40 0.44 0.46 0.47
0.18 0.17 0.16 0.15 0.14 0.13 0.13 0.13 0.13 0.12 0.12 0.12 0.12 0.12 0.13 0.12 0.12 0.12 0.12 0.13 0.13 0.13 0.13 0.13 0.13 0.13 0.14 0.14 0.13 0.13 0.13 0.12 0.12 0.12 0.12 0.12 0.14 0.17 0.19 0.21 0.23 0.24 0.25 0.25 0.28 0.29 0.30 0.32 0.34 0.38 0.41 0.44
0.17 0.17 0.16 0.15 0.14 0.13 0.12 0.12 0.12 0.12 0.12 0.12 0.12 0.13 0.12 0.12 0.12 0.12 0.12 0.12 0.12 0.12 0.13 0.13 0.13 0.13 0.13 0.13 0.13 0.13 0.13 0.12 0.12 0.12 0.11 0.11 0.12 0.13 0.15 0.18 0.20 0.22 0.22 0.24 0.24 0.26 0.28 0.29 0.30 0.32 0.35 0.39
0.17 0.17 0.16 0.15 0.14 0.13 0.12 0.12 0.12 0.12 0.12 0.12 0.13 0.13 0.12 0.12 0.12 0.12 0.12 0.12 0.12 0.12 0.12 0.13 0.13 0.13 0.13 0.13 0.13 0.13 0.13 0.13 0.13 0.13 0.12 0.11 0.11 0.10 0.11 0.14 0.17 0.19 0.21 0.21 0.21 0.23 0.24 0.25 0.27 0.29 0.32 0.36
0.18 0.18 0.17 0.16 0.14 0.14 0.13 0.12 0.11 0.11 0.11 0.12 0.13 0.13 0.12 0.12 0.12 0.12 0.12 0.12 0.12 0.12 0.12 0.12 0.12 0.12 0.12 0.13 0.13 0.13 0.13 0.13 0.12 0.12 0.11 0.11 0.10 0.10 0.10 0.11 0.14 0.16 0.19 0.18 0.19 0.20 0.20 0.22 0.24 0.28 0.32 0.36
0.18 0.18 0.18 0.17 0.16 0.15 0.13 0.13 0.12 0.12 0.12 0.12 0.13 0.12 0.12 0.12 0.12 0.12 0.11 0.11 0.12 0.12 0.12 0.12 0.12 0.12 0.12 0.13 0.13 0.12 0.12 0.12 0.11 0.11 0.11 0.11 0.11 0.10 0.11 0.11 0.13 0.15 0.18 0.17 0.18 0.19 0.19 0.19 0.20 0.23 0.25 0.29
0.19 0.19 0.18 0.18 0.18 0.16 0.14 0.13 0.13 0.13 0.12 0.12 0.12 0.12 0.12 0.12 0.11 0.11 0.11 0.11 0.11 0.12 0.12 0.12 0.12 0.12 0.12 0.12 0.12 0.12 0.11 0.11 0.11 0.11 0.11 0.11 0.12 0.11 0.10 0.11 0.11 0.14 0.15 0.16 0.16 0.15 0.17 0.18 0.19 0.18 0.20 0.23
0.20 0.19 0.18 0.18 0.18 0.17 0.15 0.14 0.13 0.12 0.11 0.12 0.12 0.12 0.12 0.11 0.12 0.11 0.11 0.11 0.11 0.12 0.12 0.12 0.12 0.12 0.12 0.12 0.12 0.12 0.11 0.11 0.11 0.11 0.11 0.11 0.11 0.11 0.10 0.10 0.10 0.11 0.13 0.14 0.16 0.16 0.16 0.15 0.16 0.17 0.21 0.21
0.20 0.19 0.18 0.18 0.17 0.16 0.14 0.13 0.12 0.11 0.11 0.11 0.11 0.11 0.12 0.12 0.12 0.11 0.11 0.11 0.11 0.12 0.12 0.12 0.12 0.12 0.11 0.11 0.11 0.11 0.11 0.12 0.12 0.11 0.12 0.12 0.12 0.11 0.11 0.10 0.10 0.10 0.11 0.13 0.15 0.17 0.18 0.18 0.17 0.18 0.19 0.19
0.21 0.20 0.19 0.18 0.17 0.17 0.15 0.14 0.13 0.13 0.12 0.12 0.12 0.12 0.12 0.12 0.12 0.12 0.11 0.11 0.12 0.12 0.12 0.12 0.12 0.12 0.11 0.11 0.11 0.12 0.12 0.12 0.12 0.12 0.12 0.12 0.12 0.12 0.11 0.11 0.10 0.10 0.10 0.12 0.13 0.14 0.16 0.18 0.19 0.20 0.19 0.16
Wind_Speed
42 42 42 42 43 43 43 43 42 42 41 40 39 39 41 43 46 49 51 51 50 49 49 49 48 47 45 44 43 43 42 41 41 41 41 40 39 37 37 36 37 39 40 41 42 42 41 41 43 45 45 43
42 42 43 43 43 43 43 43 42 42 41 40 39 39 39 41 43 47 50 52 51 51 50 48 48 48 47 45 44 43 42 42 42 41 41 41 41 40 38 36 36 37 38 40 41 42 42 40 41 44 45 43
42 43 43 43 43 43 43 42 42 42 41 41 40 39 38 39 41 44 48 51 52 51 51 49 48 48 47 46 45 43 42 42 42 42 42 41 41 41 40 38 38 37 37 39 40 41 41 41 41 43 44 44
42 43 43 43 43 42 42 42 42 42 42 41 40 40 39 38 39 41 44 49 52 52 52 51 50 49 47 46 45 44 43 43 42 42 42 41 41 42 41 41 40 39 38 38 39 40 40 40 41 42 43 44
43 43 43 43 42 42 42 42 42 42 41 41 40 40 39 38 38 40 42 46 50 52 52 51 51 51 49 47 46 45 43 43 43 43 42 41 41 41 42 42 41 40 40 39 39 39 40 40 41 42 43 44
43 43 43 43 43 42 42 42 42 42 41 41 40 40 39 39 38 39 40 43 47 51 53 51 50 50 50 48 47 46 45 44 44 43 43 42 41 40 41 41 41 40 40 40 40 40 39 40 40 41 43 43
43 43 43 43 43 42 42 42 42 42 42 41 41 40 40 39 38 38 39 41 44 48 52 52 50 49 49 48 48 47 46 45 44 44 43 42 41 40 40 41 40 39 39 40 40 41 41 41 41 41 42 43
43 43 43 43 42 42 42 42 43 42 42 42 42 41 41 40 39 38 38 39 42 46 50 53 52 50 49 48 48 47 46 45 45 44 43 42 41 40 39 40 40 40 39 40 40 41 41 42 42 41 42 43
42 42 42 42 42 42 43 43 43 43 43 43 43 42 42 41 40 39 39 39 40 43 47 52 54 52 50 49 48 47 47 46 45 44 44 43 41 40 39 39 39 39 40 41 41 42 42 42 42 41 41 42
41 41 41 41 42 42 43 43 43 43 43 43 43 43 43 42 41 39 39 39 39 41 44 49 53 54 52 50 49 48 47 47 46 45 44 43 43 42 41 40 39 39 40 41 42 43 43 43 42 42 42 42
41 41 41 41 41 42 43 43 44 44 44 44 44 44 44 43 42 40 39 39 39 40 42 46 50 54 54 51 49 49 48 47 47 47 45 45 44 43 43 42 41 40 40 40 41 43 44 44 43 43 43 42
40 40 41 41 42 42 43 43 43 44 44 44 44 44 44 43 42 40 39 38 39 39 40 43 47 52 55 54 51 50 49 48 48 48 47 46 45 45 44 44 43 42 41 41 41 41 42 44 44 44 44 43
40 40 41 41 42 43 43 44 44 44 44 44 43 43 43 42 42 40 39 38 38 38 38 40 43 48 53 55 54 51 50 49 48 48 48 48 47 46 46 45 45 44 43 42 42 41 41 43 44 44 44 44
40 40 41 41 42 43 44 44 44 44 44 43 42 42 42 42 41 39 38 37 37 37 38 38 41 44 49 53 55 53 52 51 49 49 49 49 48 48 47 46 46 46 45 44 44 43 42 42 43 44 45 44
40 40 41 42 42 43 44 44 44 44 43 43 42 41 41 41 40 38 37 36 36 36 37 38 39 41 45 50 54 55 53 52 51 50 50 50 49 49 48 48 47 47 46 46 46 45 44 44 44 44 45 44
40 41 41 42 43 43 44 44 44 44 43 43 42 41 40 40 39 37 35 34 34 35 36 37 37 38 41 46 51 54 55 53 52 51 51 51 50 50 49 49 48 48 47 48 47 47 46 45 45 45 45 44
41 41 41 42 42 43 43 44 44 44 43 42 42 40 39 39 38 36 34 33 32 32 33 35 36 37 39 42 46 51 55 55 53 52 51 51 51 50 50 50 49 48 47 47 48 48 48 47 46 46 46 45
41 41 41 41 42 42 43 43 44 44 43 42 41 40 39 38 37 36 34 32 31 31 32 33 35 36 37 39 42 47 52 55 55 54 53 52 51 51 50 49 50 49 48 47 48 49 49 49 48 48 47 46
41 41 41 41 42 42 43 43 44 43 42 41 40 39 38 38 37 35 34 32 30 29 30 31 33 35 36 37 39 43 48 53 55 55 54 53 52 51 51 50 50 50 49 48 48 49 49 49 49 49 48 47
41 41 41 41 42 43 43 43 43 43 42 40 40 39 38 37 36 35 33 32 30 29 29 30 32 34 35 36 37 40 44 49 53 55 55 54 53 51 51 51 51 51 51 50 50 49 49 49 50 50 50 49
41 41 41 41 42 42 43 43 43 42 41 40 39 39 38 36 35 34 33 32 30 28 28 29 30 32 34 35 36 37 40 44 50 54 55 54 53 52 52 52 52 52 52 52 52 51 51 50 50 50 51 50
41 41 41 42 42 42 42 42 42 42 41 39 39 38 37 35 34 34 33 32 31 29 28 28 29 31 32 34 35 36 38 41 45 50 54 55 54 53 53 53 54 53 54 54 53 53 52 52 51 51 51 52
42 41 41 42 42 42 41 41 41 41 40 39 38 37 36 35 34 33 33 32 31 29 28 27 27 28 30 32 34 35 36 38 42 46 51 55 56 55 54 55 55 55 54 55 55 54 53 53 52 51 51 52
42 41 41 41 41 41 40 40 40 40 39 38 37 36 35 35 34 33 33 32 31 30 28 27 26 26 28 31 32 34 35 36 39 43 47 52 55 56 56 56 56 55 55 55 55 55 54 53 52 52 52 51
42 41 41 41 41 40 40 39 39 39 38 37 36 35 35 34 34 33 32 31 31 30 28 27 26 26 26 28 31 32 34 35 37 39 43 47 52 55 57 57 56 55 55 55 55 55 55 54 53 52 51 51
42 41 41 41 40 40 39 39 39 38 38 36 35 34 34 34 34 33 32 31 30 29 28 26 25 25 25 26 29 31 32 33 35 37 39 42 46 50 54 56 56 55 54 54 54 55 55 54 53 52 51 51
42 42 41 41 40 40 39 39 38 38 37 36 34 33 33 33 33 32 31 30 30 28 27 26 25 24 24 24 26 29 31 32 33 34 35 38 41 44 49 53 56 56 55 54 54 54 55 54 53 53 52 52
42 42 41 41 40 39 39 39 38 37 37 35 33 33 32 32 32 31 31 30 29 27 26 26 25 23 22 23 24 26 28 30 31 32 33 34 37 40 43 48 52 55 56 56 55 55 55 55 54 54 53 52
42 42 42 41 40 39 39 38 38 37 36 34 33 32 31 31 31 30 30 29 28 27 26 25 24 22 21 21 22 23 24 26 28 30 31 32 34 36 39 43 47 52 55 56 56 56 56 56 55 56 55 54
42 42 41 41 40 39 39 38 37 36 36 34 33 31 30 30 30 29 29 28 27 26 25 24 23 22 21 21 21 21 21 23 25 27 28 30 31 33 36 39 42 47 51 55 56 57 57 57 57 57 57 56
42 42 42 41 40 39 39 38 37 36 35 34 33 31 30 29 29 29 28 27 26 25 24 23 23 22 22 21 20 20 20 21 22 24 26 28 29 31 33 35 38 42 46 51 55 56 58 59 59 59 58 58
Wind_Direction
328 327 327 326 324 323 321 319 317 315 312 307 300 291 282 273 265 260 256 254 255 253 250 249 249 250 251 250 249 249 251 252 251 251 251 251 250 248 246 244 241 239 238 237 236 236 236 237 235 232 231 231
328 327 327 326 325 324 322 321 319 317 314 310 305 297 287 278 270 263 257 254 253 253 251 249 249 249 250 250 250 249 249 250 250 249 250 249 249 247 246 245 243 240 238 237 236 235 235 236 235 233 231 230
328 328 327 327 326 324 323 321 320 318 316 313 308 303 294 284 276 267 260 255 252 252 251 249 249 248 249 249 248 248 247 247 246 247 247 247 247 247 246 245 245 243 240 238 236 235 234 234 235 233 231 231
329 328 328 327 326 325 324 322 320 319 317 314 311 307 300 290 281 273 265 258 253 251 251 250 248 248 248 248 247 247 246 245 245 246 246 246 246 246 245 245 244 244 242 240 238 236 234 234 234 232 231 231
329 329 328 327 327 326 325 323 321 319 318 316 313 310 305 296 286 278 270 262 256 252 251 250 248 247 247 247 246 246 246 245 245 245 245 245 245 244 244 244 243 242 242 240 238 236 235 234 234 232 230 230
329 329 328 328 327 326 325 324 322 320 318 317 315 312 308 301 292 283 275 267 259 253 251 249 249 248 247 246 245 245 245 245 244 244 244 245 244 243 243 242 242 242 240 239 238 236 235 235 234 233 231 230
329 328 328 328 328 327 326 325 323 321 319 317 315 313 310 305 296 287 279 271 263 256 251 249 248 248 247 245 245 244 244 244 244 243 243 244 244 243 242 241 241 241 241 239 238 237 236 235 235 235 232 231
328 328 328 328 328 327 327 326 324 322 320 318 316 314 311 307 300 291 283 275 267 260 254 249 247 248 247 245 244 244 243 242 243 243 242 243 243 242 241 239 239 239 240 239 238 237 237 236 236 235 234 232
328 329 329 329 328 328 327 327 325 323 321 319 317 314 312 308 303 295 286 278 271 264 257 251 247 247 247 246 244 244 243 241 241 241 241 241 241 240 239 238 237 237 238 239 238 237 237 236 235 235 234 234
329 329 329 329 329 328 328 327 326 324 322 320 317 315 313 309 304 297 288 280 274 267 260 253 248 247 247 246 245 244 243 242 241 240 239 239 239 239 238 237 236 236 236 238 238 238 237 236 235 234 234 234
329 329 329 329 328 328 327 327 326 324 322 320 318 316 313 310 305 298 290 281 275 270 263 257 251 247 246 245 244 244 243 243 241 240 238 237 238 238 237 236 236 236 236 237 237 238 238 237 235 235 235 234
328 328 328 328 328 327 327 326 326 324 322 321 319 317 314 311 307 300 292 283 276 271 266 260 254 248 246 245 244 243 243 242 241 241 239 238 238 238 237 236 236 236 237 236 236 237 237 236 235 235 234 234
327 327 327 327 327 327 326 326 326 325 323 321 320 319 317 314 309 302 294 285 277 271 267 263 257 251 246 244 244 243 243 243 242 241 241 240 239 238 238 237 236 237 237 236 236 235 236 235 235 234 234 234
327 327 327 327 326 326 326 326 326 325 324 323 322 321 320 317 313 306 297 287 279 272 268 265 261 255 249 245 243 242 242 243 242 241 241 241 241 240 239 238 238 238 238 237 236 235 235 235 234 233 233 233
326 326 326 326 326 326 326 326 326 326 325 324 323 322 322 320 317 312 303 291 282 274 269 266 263 258 252 247 244 242 242 242 243 242 241 241 242 241 240 239 239 239 239 238 237 236 235 235 234 233 232 232
326 326 326 326 326 325 325 326 326 326 325 324 323 323 323 322 320 316 309 298 287 278 271 266 263 260 256 250 246 243 242 242 242 242 242 241 241 242 241 240 240 240 240 239 238 237 236 235 235 234 233 233
326 325 325 325 325 325 325 326 326 326 326 325 324 323 323 323 322 319 314 304 292 283 274 268 263 261 258 254 249 245 243 242 241 242 242 241 241 241 241 240 239 240 240 240 240 239 237 236 235 235 234 233
325 325 325 325 325 325 325 325 325 325 326 325 324 323 322 323 322 321 317 308 298 289 280 271 265 261 259 257 252 248 244 242 242 242 242 242 241 240 240 240 240 239 239 240 240 240 238 236 236 235 234 234
324 324 324 324 324 324 324 324 325 325 325 325 324 323 322 322 322 321 319 313 302 293 285 276 268 262 259 257 255 251 247 244 242 242 242 242 241 241 240 240 240 240 240 240 240 240 239 238 237 236 235 235
324 323 323 323 323 323 324 324 324 324 325 324 324 323 322 321 321 321 320 316 307 297 289 281 273 265 260 257 256 253 250 246 243 242 242 242 242 241 241 241 241 241 241 240 240 240 240 239 238 237 237 237
323 323 322 322 322 323 323 323 324 324 324 324 324 323 322 321 321 320 320 318 312 302 294 286 277 269 263 258 256 255 252 249 245 243 242 242 242 242 241 242 241 241 241 241 240 239 240 239 238 238 237 238
323 322 322 321 321 322 322 322 323 324 324 324 324 323 323 322 321 320 319 318 315 307 298 291 283 273 266 260 257 256 254 251 248 245 243 243 243 242 242 242 242 242 242 241 240 240 240 239 238 237 237 237
323 322 321 321 321 321 322 322 323 324 324 324 323 323 324 323 322 321 320 319 317 312 303 296 289 278 269 262 258 257 256 254 251 248 245 244 243 243 242 242 242 242 242 241 241 240 239 239 238 237 237 237
323 322 321 320 321 321 321 322 322 323 324 324 323 323 324 324 323 322 321 320 318 315 309 300 294 286 274 265 260 258 258 257 254 251 248 246 244 244 243 243 242 242 242 241 240 239 239 239 238 237 237 236
322 322 321 320 320 320 320 321 322 322 323 323 322 323 323 323 323 322 322 321 319 317 313 306 298 291 281 270 262 259 259 259 258 255 252 249 247 245 244 243 242 242 241 240 240 239 238 238 238 236 236 235
322 322 321 320 319 319 319 320 320 321 322 322 321 322 322 323 323 323 322 321 320 318 316 311 303 294 287 277 267 262 260 260 260 259 255 252 249 246 244 243 242 241 241 239 239 239 238 237 237 235 234 234
322 321 320 319 318 318 318 318 319 319 320 320 319 320 321 322 323 323 323 322 321 319 317 315 309 300 292 284 274 266 263 262 261 261 258 255 251 248 245 243 242 241 240 239 239 238 236 236 235 235 235 234
322 320 319 318 317 316 316 316 317 317 318 318 318 318 320 321 322 323 323 323 321 319 318 316 314 307 297 290 283 274 268 265 263 261 260 257 254 251 248 245 242 241 240 240 239 238 236 235 235 234 235 236
322 320 319 318 316 315 315 315 316 316 316 316 316 317 318 319 321 322 323 323 322 321 319 317 316 311 303 296 291 284 276 270 266 263 260 259 257 254 251 247 245 242 241 241 239 238 236 235 234 234 235 237
321 320 319 317 316 315 314 314 314 315 315 315 315 315 316 317 319 320 321 322 322 321 320 318 317 315 309 302 295 291 285 278 271 267 263 260 258 256 253 250 248 245 242 240 239 238 236 235 235 235 236 237
321 320 319 317 315 314 313 312 312 313 313 313 313 313 314 314 316 318 320 320 320 321 321 319 318 316 313 307 299 294 291 286 279 272 268 264 260 257 255 253 250 248 244 241 240 239 238 237 237 236 236 235